METEOR 2-11 DEB, 40318

Orbit data source: Space-Track

METEOR 2-11 DEB, 40318 is space debris in LEO originally from a launch on Thu, 05 Jul 1984 UTC launched from the Plesetsk Missile And Space Complex (PKMTR). Debris objects in space refer to the collection of defunct objects orbiting the Earth. Examples of debris include non-operational satellites, rocket bodies, and fragments generated from explosions, collisions, or faulty payload assembly.

Loading next visibility...
Identifier
40318, 1984-072D
Orbit
LEO
Country
Flag of CISCIS
Related business
Manufacturer
Unknown
Mission
Spacecraft
Bus & Motor
Unknown
Mass
Unknown
Launch date (UTC)
1984-07-05 (41 years ago)
Launch vehicle
Unknown
Launch site
Plesetsk Missile And Space Complex (PKMTR)
Object type
Payload
Rocket body
Debris
Shape & HBR
Unknown shape, 0.1 m
Radar Cross Section
Small (<0.1 m²)

Expand to show TLE details & history
Last TLE update: 3 days ago

TLE from 3 days ago
0 METEOR 2-11 DEB
1 40318U 84072D   25308.97328090  .00002076  00000-0  15222-2 0  9992
2 40318  82.5309 201.6535 0022555 307.0964  70.0570 13.95265513553940
Epoch: 2025-11-04T23:21Z
TLE epoch observation values (Epoch: 2025-11-04T23:21:31.469Z)
Latitude
17.23213°
Longitude
169.13805°
Altitude
906.975 km
Speed
7.403 km/s
True Right ascension
13h 35m 53s
True Declination
17° 08' 13"
Sunlit
Object was in daylight at epoch
Visualization orbit readout
Latitude
Unknown
Longitude
Unknown
Altitude
Unknown
Speed
Unknown
Apparent Right ascension
Unknown
Apparent Declination
Unknown
Sunlit
N/A
Visualization observer readout
Local Sidereal Time
15:36:24
Azimuth
Unknown
Elevation
Unknown
Doppler factor
Unknown
Orbital elements
Apogee altitude
923.806 km
Perigee altitude
890.941 km
Semi-major axis
7,285.51 km
Eccentricity
0.00226
Inclination
82.5309°
RAAN
201.6535°
Arg. of periapsis
307.0964°
True anomaly
70.3002°
Mean anomaly
70.057°
Eccentric anomaly
70.17857°
Mean motion
3.49022 °/min
Orbital period
103.15 mins
BSTAR
0.0015222
Loading maneuver chart data...
Computing Atmospheric mass density...
Loading historical data...
Loading historical data...
Loading historical data...
Loading historical data...
Loading historical data...
Loading historical data...
Loading historical data...

Documentation

Showing up to 5 results
|